Date String (YYYY-MM-DD hh:mm:ss) UTC,Instrument flags,Ambient pressure (hPa),Sample flow (lpm),Bypass flow (lpm),Sample temperature (°C),Ambient temperature (°C),ASC tube jacket temperature (°C),LED temperature (°C),Box temperature (°C),Sample RH (%),Span deviation,Mass concentration (μg/m³),Mass concentration (μg/m³),Mass concentration (μg/m³)
DateTimeUTC,F1_M11,P_M11,Q1_M11,Q2_M11,T1_M11,T2_M11,T3_M11,T4_M11,T5_M11,U1_M11,ZSPAN_M11,X0_M11,X2_M11,X1_M11
2023-02-25 12:00:00,,0824.6,5.01,0.00,22.2,22.0,00.0,30.9,24.0,09.4,0000.0,0015.26,0011.88,0011.48
2023-02-25 12:01:00,,0824.5,5.06,0.00,22.3,22.8,00.0,30.9,24.2,09.4,0000.0,0015.40,0012.22,0011.84
2023-02-25 12:02:00,,0824.7,5.01,0.00,22.3,22.3,00.0,31.0,24.1,09.5,0000.0,0014.95,0011.81,0011.48
2023-02-25 12:03:00,,0824.8,4.99,0.00,22.3,21.6,00.0,31.0,24.0,09.6,0000.0,0014.64,0011.51,0011.20
2023-02-25 12:04:00,,0824.7,5.04,0.00,22.2,21.0,00.0,31.0,23.8,09.6,0000.0,0014.43,0011.29,0010.97
2023-02-25 12:05:00,,0824.4,4.99,0.00,22.2,20.7,00.0,31.0,23.7,09.6,0000.0,0015.06,0011.44,0011.11
2023-02-25 12:06:00,,0824.5,5.01,0.00,22.1,20.4,00.0,31.0,23.7,09.6,0000.0,0015.45,0011.80,0011.45
2023-02-25 12:07:00,,0824.4,5.00,0.00,22.1,20.2,00.0,30.9,23.7,09.6,0000.0,0014.90,0011.22,0010.91
2023-02-25 12:08:00,,0824.4,5.00,0.00,22.1,20.1,00.0,30.9,23.6,09.6,0000.0,0014.57,0010.72,0010.39
2023-02-25 12:09:00,,0824.7,5.01,0.00,22.0,20.0,00.0,30.9,23.6,09.6,0000.0,0015.05,0011.38,0011.07
2023-02-25 12:10:00,,0824.9,4.99,0.00,22.0,19.9,00.0,30.9,23.5,09.6,0000.0,0016.85,0012.52,0012.19
2023-02-25 12:11:00,,0824.7,5.01,0.00,21.9,20.3,00.0,30.8,23.5,09.5,0000.0,0017.70,0013.23,0012.85
2023-02-25 12:12:00,,0824.8,5.00,0.00,22.0,21.5,00.0,30.8,23.8,09.5,0000.0,0018.54,0013.99,0013.63
2023-02-25 12:13:00,,0824.9,5.02,0.00,22.1,22.5,00.0,30.8,24.0,09.5,0000.0,0018.87,0014.31,0013.92
2023-02-25 12:14:00,,0825.0,4.97,0.00,22.2,22.2,00.0,30.9,24.0,09.7,0000.0,0019.20,0014.66,0014.26
2023-02-25 12:15:00,,0824.6,4.98,0.00,22.1,21.5,00.0,30.9,23.8,09.8,0000.0,0019.47,0014.98,0014.58
2023-02-25 12:16:00,,0824.6,5.02,0.00,22.1,21.0,00.0,30.9,23.6,09.8,0000.0,0018.88,0014.91,0014.53
2023-02-25 12:17:00,,0824.5,4.99,0.00,22.0,20.6,00.0,30.9,23.5,09.8,0000.0,0018.88,0014.95,0014.57
2023-02-25 12:18:00,,0824.4,5.00,0.00,22.0,20.3,00.0,30.8,23.5,09.8,0000.0,0019.15,0015.16,0014.76
2023-02-25 12:19:00,,0824.5,4.99,0.00,21.9,20.0,00.0,30.8,23.4,09.9,0000.0,0018.76,0014.83,0014.43
2023-02-25 12:20:00,,0824.7,5.01,0.00,21.9,19.8,00.0,30.8,23.3,10.0,0000.0,0018.04,0014.22,0013.82
2023-02-25 12:21:00,,0824.6,5.01,0.00,21.8,19.7,00.0,30.8,23.2,09.9,0000.0,0016.23,0013.34,0012.98
2023-02-25 12:22:00,,0824.6,4.99,0.00,21.8,20.7,00.0,30.7,23.5,09.8,0000.0,0014.77,0012.04,0011.70
2023-02-25 12:23:00,,0824.6,5.00,0.00,21.9,21.9,00.0,30.7,23.7,09.7,0000.0,0014.86,0011.89,0011.49
2023-02-25 12:24:00,,0824.6,4.96,0.00,22.0,22.5,00.0,30.7,23.9,09.6,0000.0,0016.16,0013.30,0012.88
2023-02-25 12:25:00,,0824.7,5.02,0.00,22.1,22.0,00.0,30.8,23.9,09.6,0000.0,0017.39,0014.49,0014.09
2023-02-25 12:26:00,,0824.7,5.00,0.00,22.0,21.4,00.0,30.8,23.7,09.6,0000.0,0017.94,0014.99,0014.58
2023-02-25 12:27:00,,0824.5,5.00,0.00,22.0,21.0,00.0,30.8,23.6,09.7,0000.0,0018.30,0015.34,0014.93
2023-02-25 12:28:00,,0824.6,5.01,0.00,22.0,20.6,00.0,30.8,23.5,09.7,0000.0,0018.46,0015.49,0015.10
2023-02-25 12:29:00,,0824.6,4.99,0.00,21.9,20.4,00.0,30.8,23.5,09.7,0000.0,0018.22,0015.30,0014.95
2023-02-25 12:30:00,,0824.6,5.00,0.00,21.9,20.2,00.0,30.8,23.4,09.7,0000.0,0018.10,0015.28,0014.93
2023-02-25 12:31:00,,0824.8,5.01,0.00,21.9,20.1,00.0,30.7,23.4,09.7,0000.0,0018.28,0015.47,0015.11
2023-02-25 12:32:00,,0824.8,5.00,0.00,21.8,20.0,00.0,30.7,23.4,09.6,0000.0,0018.26,0015.46,0015.10
2023-02-25 12:33:00,,0824.6,4.99,0.00,21.8,20.0,00.0,30.7,23.4,09.6,0000.0,0017.04,0014.48,0014.21
2023-02-25 12:34:00,,0824.6,5.00,0.00,21.8,20.1,00.0,30.7,23.4,09.6,0000.0,0015.18,0012.88,0012.61
2023-02-25 12:35:00,,0824.6,5.01,0.00,21.9,21.2,00.0,30.7,23.7,09.7,0000.0,0013.18,0010.72,0010.50
2023-02-25 12:36:00,,0824.5,4.95,0.00,22.0,22.4,00.0,30.7,24.0,09.6,0000.0,0011.68,0009.25,0008.98
2023-02-25 12:37:00,,0824.6,4.94,0.00,22.1,22.8,00.0,30.7,24.1,09.6,0000.0,0010.83,0008.43,0008.17
2023-02-25 12:38:00,,0824.4,5.02,0.00,22.2,22.2,00.0,30.8,24.0,09.5,0000.0,0010.18,0007.82,0007.58
2023-02-25 12:39:00,,0824.4,5.00,0.00,22.2,21.6,00.0,30.8,23.9,09.3,0000.0,0009.86,0007.47,0007.21
2023-02-25 12:40:00,,0824.4,4.98,0.00,22.1,21.2,00.0,30.8,23.8,09.3,0000.0,0009.85,0007.42,0007.15
2023-02-25 12:41:00,,0824.6,5.02,0.00,22.1,20.8,00.0,30.8,23.7,09.2,0000.0,0009.96,0007.53,0007.27
2023-02-25 12:42:00,,0824.6,5.00,0.00,22.1,20.6,00.0,30.8,23.7,09.2,0000.0,0010.13,0007.65,0007.39
2023-02-25 12:43:00,,0824.7,5.00,0.00,22.0,20.4,00.0,30.8,23.6,09.2,0000.0,0010.31,0007.81,0007.53
2023-02-25 12:44:00,,0824.6,5.00,0.00,22.0,20.1,00.0,30.8,23.5,09.0,0000.0,0011.14,0008.57,0008.22
2023-02-25 12:45:00,,0824.5,5.00,0.00,21.9,19.9,00.0,30.8,23.4,08.9,0000.0,0012.13,0009.58,0009.25
2023-02-25 12:46:00,,0824.6,5.00,0.00,21.9,19.7,00.0,30.7,23.3,08.8,0000.0,0012.72,0010.19,0009.88
2023-02-25 12:47:00,,0824.5,5.01,0.00,21.8,20.0,00.0,30.7,23.4,08.8,0000.0,0013.31,0010.79,0010.47
2023-02-25 12:48:00,,0824.7,5.05,0.00,21.9,21.3,00.0,30.7,23.7,08.7,0000.0,0013.95,0011.30,0010.97
2023-02-25 12:49:00,,0824.7,5.00,0.00,22.0,22.3,00.0,30.7,23.9,08.7,0000.0,0014.80,0011.69,0011.36
2023-02-25 12:50:00,,0824.4,5.01,0.00,22.1,22.4,00.0,30.7,24.0,08.6,0000.0,0014.91,0011.74,0011.42
2023-02-25 12:51:00,,0824.4,4.99,0.00,22.1,21.8,00.0,30.8,23.9,08.6,0000.0,0014.81,0011.62,0011.28
2023-02-25 12:52:00,,0824.4,5.00,0.00,22.1,21.3,00.0,30.8,23.8,08.7,0000.0,0014.41,0011.19,0010.87
2023-02-25 12:53:00,,0824.4,5.02,0.00,22.1,20.9,00.0,30.8,23.7,09.0,0000.0,0013.73,0010.51,0010.21
2023-02-25 12:54:00,,0824.4,5.01,0.00,22.0,20.6,00.0,30.8,23.7,09.1,0000.0,0012.96,0009.74,0009.44
2023-02-25 12:55:00,,0824.4,4.99,0.00,22.0,20.4,00.0,30.8,23.6,08.9,0000.0,0012.28,0009.03,0008.75
2023-02-25 12:56:00,,0824.4,5.00,0.00,22.0,20.2,00.0,30.8,23.5,08.7,0000.0,0011.60,0008.31,0008.01
2023-02-25 12:57:00,,0824.5,5.00,0.00,21.9,20.1,00.0,30.7,23.5,08.7,0000.0,0011.14,0007.87,0007.57
2023-02-25 12:58:00,,0824.5,5.01,0.00,21.9,19.9,00.0,30.7,23.4,09.0,0000.0,0010.80,0007.47,0007.16
2023-02-25 12:59:00,,0824.4,5.00,0.00,21.9,19.8,00.0,30.7,23.4,09.1,0000.0,0010.21,0006.99,0006.65
